Regional Weather Roundup
Issued by NWS

Home | Current Version | Previous Version | Text Only | Print | Product List | Glossary On
Versions: 1 2 3 4 5 6 7 8 9 10 11 12 13 14 15 16 17 18 19 20 21 22 23 24 25 26 27 28 29 30 31 32 33 34 35 36 37 38 39 40 41 42 43 44 45 46 47 48 49 50
000
ASUS45 KREV 311310
RWRNV
NEVADA REGIONAL WEATHER ROUNDUP
NATIONAL WEATHER SERVICE RENO NV
600 AM PDT MON AUG 31 2015

NOTE: "FAIR" INDICATES FEW OR NO CLOUDS BELOW 12,000 FEET WITH NO
SIGNIFICANT WEATHER AND/OR OBSTRUCTIONS TO VISIBILITY.

NVZ001-003-004-311400-
WESTERN NEVADA

CITY           SKY/WX    TMP DP  RH WIND       PRES   REMARKS
RENO           CLEAR     53  25  33 W3        30.10R
CARSON CITY    FAIR      48  27  43 CALM      30.11R
MINDEN         FAIR      37  32  81 E6        30.11S
SLIDE MTN        N/A     48  27  43 SE16        N/A
PYRAMID LAKE     N/A     61 N/A N/A SW7         N/A
FALLON         CLEAR     50  24  36 SW3       30.05R
LOVELOCK       CLEAR     41  18  39 SE5       30.06R
HAWTHORNE      CLEAR     61  30  31 CALM      30.05S
$$

NVZ002-CAZ072-073-311400-
NORTHERN AND CENTRAL SIERRA

CITY           SKY/WX    TMP DP  RH WIND       PRES   REMARKS
S. LAKE TAHOE  CLEAR     36  27  69 S3        30.16S
TRUCKEE        CLEAR     32  27  80 CALM      30.17S
SQUAW VLY 8000   N/A     46  28  49 SE2         N/A
SUSANVILLE     CLEAR     45  32  61 W6        30.09S
BLUE CANYON    CLEAR     61  14  16 CALM      30.10S
MAMMOTH LAKES  FAIR      45  28  53 NW3       30.21S
BRIDGEPORT     FAIR      39  27  62 CALM      30.19R
$$

NVZ030-031-036-311400-
NORTHERN NEVADA

CITY           SKY/WX    TMP DP  RH WIND       PRES   REMARKS
ELKO           PTCLDY    43  21  41 CALM      30.14R
WINNEMUCCA     PTCLDY    39  20  46 VRB7      30.09
WENDOVER       PTCLDY    63  27  25 CALM      30.09R
$$

NVZ035-037-311400-
CENTRAL NEVADA

CITY           SKY/WX    TMP DP  RH WIND       PRES   REMARKS
ELY            CLEAR     44  27  51 S14       30.18R
EUREKA           N/A     44  23  43 S6        30.16R
$$

NVZ013-014-311400-
SOUTH CENTRAL NEVADA

CITY           SKY/WX    TMP DP  RH WIND       PRES   REMARKS
TONOPAH        CLEAR     58  24  27 N14       30.10R
$$

NVZ017-020-022-311400-
SOUTHERN NEVADA

CITY           SKY/WX    TMP DP  RH WIND       PRES   REMARKS
LAS VEGAS      MOCLDY    81  42  25 SW3       29.83R
N. LAS VEGAS   PTCLDY    77  41  27 N7        29.85R
NELLIS AFB     PTCLDY    77  42  29 VRB1      29.84R
HENDERSON      PTCLDY    78  47  33 SW12      29.89R
MERCURY        CLEAR     68  38  33 NE5       29.94R
$$



USA.gov is the U.S. government's official web portal to all federal, state and local government web resources and services.